User: anonymous   Login
Location: Unspecified
(0.0000°N, 0.0000°E)
Time: 16:27:04
(UTC+00:00)
Language:

Explorer 11/Cluster Stage 4 - Orbit

View from above orbital plane
View from above orbital plane
View from above satellite
View from above satellite

Ground track
Ground track

The orbit data is extracted from the following two-line orbital elements,

1   107U 61013A   17147.89284568 +.00000343 +00000-0 +25882-4 0  9998
2   107 028.7912 004.6043 0549412 330.0274 026.9890 14.08298214808650
Epoch (UTC): 27 May 2017 21:25:41
Eccentricity: 0.0549412
inclination: 28.7912°
perigee height: 467 km
apogee height: 1263 km
right ascension of ascending node: 4.6043°
argument of perigee: 330.0274°
revolutions per day: 14.08298214
mean anomaly at epoch: 26.9890°
orbit number at epoch: 80865

The dashed part of the orbit path shows where the satellite is in the earth's shadow,  

DLR